This is the latest recevied weather packets stored in our database for station/object KC9DNQ-3. If no packets are shown the sender has not sent any weather packets the latest 10 day(s).
| Time | Temp. | Humidity | Pressure | Rain* | Wind** | Luminosity | Snow |
|---|---|---|---|---|---|---|---|
| 1778184310 | 13.33° C | 69% | 1010.8 hPa | 0 mm | - | 350 W/m² | - |
| 1778184009 | 12.78° C | 73% | 1010.8 hPa | 0 mm | - | 508 W/m² | - |
| 1778183710 | 12.22° C | 72% | 1011 hPa | 0.25 mm | - | 538 W/m² | - |
| 1778183410 | 11.67° C | 75% | 1011.3 hPa | 0.25 mm | - | 345 W/m² | - |
| 1778183110 | 11.11° C | 76% | 1011.3 hPa | 0.51 mm | - | 446 W/m² | - |
| 1778182810 | 10.56° C | 75% | 1011.3 hPa | 0.51 mm | - | 376 W/m² | - |
| 1778182509 | 10.56° C | 75% | 1011.6 hPa | 0.51 mm | - | 211 W/m² | - |
| 1778182210 | 10.56° C | 73% | 1012.2 hPa | 0.51 mm | - | 269 W/m² | - |
| 1778181910 | 10.56° C | 76% | 1012.1 hPa | 0.51 mm | - | 352 W/m² | - |
| 1778181610 | 10.56° C | 77% | 1012.3 hPa | 0.51 mm | - | 302 W/m² | - |
| 1778181309 | 10° C | 76% | 1012.3 hPa | 0.51 mm | - | 308 W/m² | - |
| 1778181010 | 10° C | 78% | 1012.3 hPa | 0.51 mm | - | 218 W/m² | - |
| 1778180709 | 10° C | 78% | 1012.4 hPa | 0.51 mm | - | 207 W/m² | - |
| 1778180410 | 10° C | 76% | 1012.4 hPa | 0.51 mm | - | 213 W/m² | - |
| 1778180110 | 10.56° C | 76% | 1012.6 hPa | 0.25 mm | - | 186 W/m² | - |
| 1778179809 | 10.56° C | 71% | 1012.6 hPa | 0.25 mm | - | 148 W/m² | - |
| 1778179510 | 11.11° C | 67% | 1012.6 hPa | 0 mm | - | 116 W/m² | - |
| 1778179210 | 11.67° C | 66% | 1012.6 hPa | 0 mm | - | 102 W/m² | - |
| 1778178911 | 11.67° C | 65% | 1012.5 hPa | 0 mm | - | 153 W/m² | - |
| 1778178610 | 11.67° C | 65% | 1012.5 hPa | 0 mm | - | 158 W/m² | - |
| 1778178310 | 11.67° C | 67% | 1012.5 hPa | 0 mm | - | 132 W/m² | - |
| 1778178010 | 11.67° C | 67% | 1012.5 hPa | 0 mm | - | 163 W/m² | - |
| 1778177710 | 11.67° C | 66% | 1012.5 hPa | 0 mm | - | 301 W/m² | - |
| 1778177410 | 11.67° C | 64% | 1012.5 hPa | 0 mm | - | 244 W/m² | - |
| 1778177110 | 11.67° C | 63% | 1012.5 hPa | 0 mm | - | 104 W/m² | - |
* Rain latest hour (hover to see other rain measurements)
** Current wind speed in m/s (hover to see current wind gust speed)